Regional Weather Roundup
Issued by NWS Sioux Falls, SD

Home | Current Version | Previous Version | Graphics & Text | Print | Product List | Glossary On
Versions: 1 2 3 4 5 6 7 8 9 10 11 12 13 14 15 16 17 18 19 20 21 22 23 24 25 26 27 28 29 30 31 32 33 34 35 36 37 38 39 40 41 42 43 44 45 46 47 48 49 50
000
ASUS43 KFSD 262202
RWRFSD

WEATHER ROUNDUP FOR SE SOUTH DAKOTA/SW MINNESOTA/NW IOWA
NATIONAL WEATHER SERVICE SIOUX FALLS SD
400 PM CST MON JAN 26 2015

NOTE: "FAIR" INDICATES FEW OR NO CLOUDS BELOW 12,000 FEET WITH NO
SIGNIFICANT WEATHER AND OR OBSTRUCTIONS TO VISIBILITY.


SDZ038>040-050-052>070-262300-
SOUTHEAST SOUTH DAKOTA

CITY           SKY/WX    TMP DP  RH WIND       PRES   REMARKS
CHAMBERLAIN    NOT AVBL
HURON          SUNNY     49  37  63 NW14      29.96R
MADISON        FAIR      43  41  93 NW18G28   29.92R
MITCHELL       SUNNY     53  38  56 N12       29.98R
SIOUX FALLS    MOSUNNY   47  36  65 NW16      29.92R
WINNER         FAIR      60  29  30 NW10      30.00R
YANKTON        SUNNY     54  36  50 NW16      29.97R
$$

MNZ071-072-080-081-089-090-097-098-262300-
SOUTHWEST MINNESOTA

CITY           SKY/WX    TMP DP  RH WIND       PRES   REMARKS
FAIRMONT       PTSUNNY   45  34  65 NW15G25   29.83R
JACKSON        PTSUNNY   43  36  75 NW13      29.86R
LUVERNE        SUNNY     46  36  66 NW15G21   29.91R
MARSHALL       CLOUDY    43  34  70 N21       29.90R
MONTEVIDEO     CLOUDY    43  36  75 N13G18    29.88R
PIPESTONE      SUNNY     43  36  75 NW18G25   29.89R
REDWOOD FALLS  CLOUDY    43  34  70 NW15G23   29.86R
TRACY          MOSUNNY   43  37  79 NW14      29.87R
WINDOM         PTSUNNY   43  36  75 NW12      29.86R
WORTHINGTON    SUNNY     43  34  70 NW18G24   29.88R
$$

IAZ001>003-012>014-020>022-031-032-NEZ013-014-SDZ071-262300-
NORTHWEST IOWA

CITY           SKY/WX    TMP DP  RH WIND       PRES   REMARKS
ESTHERVILLE    MOSUNNY   44  37  76 NW17      29.84R
SIOUX CITY     SUNNY     55  38  52 NW14G25   29.94R
SPENCER        SUNNY     47  37  68 NW16G25   29.87R
$$

ABBREVIATIONS USED IN REMARKS
   TC - TEMPERATURE IN CELSIUS
  WCI - WIND CHILL INDEX
   HX - HEAT INDEX
  VSB - VISIBILITY




USA.gov is the U.S. government's official web portal to all federal, state and local government web resources and services.